map of BDS home
BDS - Airport
Location
City:  Brindisi, Apulia, Italy
Name:Brindisi-Salento Airport
Old (Alt.):Brindisi Papola Casale Airport
ICAO:LIBR
IATA:BDS

Details
Type:Airport (Aerodrome, Airfield)
Use:Public/Civil, Military, International (customs port of entry)
Latitude:4039'27"N (40.657633)
Longitude:1756'49"E (17.947033)
Datum:WGS 1984
Elevation:47 ft (14 m)
Variation:3.83E (WMM2015 magnetic declination)
0.10 annual change
Runways:2
Longest:8307 × 148 ft (2532 × 45 m), paved

Time
Time Zone:UTC+1 (DST+2)
Local Time:

Weather
METAR:LIBR 270245Z 15014KT CAVOK 14/13 Q1016 NOSIG
TAF:LIBR 262300Z 2700/2724 18015KT 9999 SCT020
TEMPO 2715/2724 18020G35KT

Related Locations
Nearby:
Farthest:CHT: 11671 mi / 18783 km
Waitangi [Tuuta], CIT, NZ

Find:

   beyond  
but within

Other Information
Maps:
NOTAMs:
Links:
Sources:

  
flag of Italy
flag of Apulia
  

Airport Diagram

Airport diagram for BDS

Larger airport diagram (OBSOLETE) from NGA

Sectional Chart

Flight Planning
at skyvector.com

Satellite Image

Google Maps Satellite view

 

Copyright © 2004-2017 Karl L. Swartz. All rights reserved.
The Great Circle Mapper name and logo are trademarks of the Great Circle Mapper.
All other trademarks mentioned herein belong to their respective owners.
Please see credits for attibutions and further copyright information.

  Follow gcmap on Facebook Follow gcmap on Twitter Follow gcmap on Google+ GCmap on LinkedIn

hCard Microformat

Geo Microformat